Location: Veytaux
(46.4185°N, 6.9320°E)
Time: 07:58:39
(UTC+00:00)

CZ-4C R/B - Pass Details

Date: 27 May 2022
Orbit: 581 x 1419 km, 63.4° (Epoch: 01 July)

Event Time Altitude Azimuth Distance (km) Brightness Sun altitude
Rises 00:47:54 0° 314° (NW) 3,938 6.0 -20.0°
Reaches altitude 10° 00:50:44 10° 304° (NW) 3,096 5.3 -19.9°
Maximum altitude 00:57:13 32° 246° (WSW) 2,093 3.8 -19.5°
Enters shadow 00:59:33 27° 219° (SW) 2,313 3.9 -19.3°
